WX1USN Weather Reports


Display with metric or nautical units.
time (UTC)temp
F
wind
direction
speed
MPH
gust
MPH
rain 1hr
in
rain 24hr
in
rain mn
in
humidity
%
barometer
mb
20260503034507 49 316 0.0 4.0 0.00 0.06 0.06 88 1010.0
20260503031508 49 294 0.0 0.0 0.00 0.06 0.06 88 1010.0
20260503024507 49 294 0.0 0.0 0.00 0.06 0.06 88 1010.1
20260503023007 49 294 0.0 0.0 0.00 0.06 0.06 88 1010.1
20260503021507 49 294 0.0 0.0 0.00 0.06 0.06 88 1010.0
20260503020010 49 221 0.0 0.0 0.00 0.06 0.06 87 1010.2
20260503014507 49 221 0.0 0.0 0.00 0.06 0.06 87 1010.2
20260503013007 49 221 0.0 0.0 0.00 0.06 0.06 87 1010.3
20260503011507 49 221 0.0 0.0 0.00 0.06 0.06 86 1010.4
20260503010010 50 236 1.0 3.0 0.00 0.06 0.06 86 1010.3
20260503004506 50 223 0.0 3.0 0.00 0.06 0.06 85 1010.2
20260503003007 50 224 0.0 3.0 0.00 0.06 0.06 85 1010.2
20260503001508 50 211 0.0 0.0 0.00 0.06 0.06 84 1010.2
20260503000011 51 207 0.0 0.0 0.00 0.06 0.06 83 1010.1
20260502234507 51 207 0.0 0.0 0.00 0.06 0.06 82 1010.2
20260502233008 51 207 0.0 0.0 0.00 0.06 0.06 81 1010.0
20260502231507 51 244 0.0 0.0 0.00 0.06 0.06 80 1010.1
20260502230010 51 290 0.0 0.0 0.00 0.06 0.06 80 1010.2
20260502224507 52 263 0.0 2.0 0.00 0.06 0.06 79 1010.1
20260502223007 52 209 1.0 8.0 0.00 0.06 0.06 79 1010.0
20260502221507 52 227 2.0 7.0 0.00 0.06 0.06 77 1010.0
20260502220010 53 200 2.0 5.0 0.00 0.06 0.06 76 1010.0
20260502214510 53 187 2.0 6.0 0.00 0.06 0.06 75 1010.0
20260502213007 53 218 3.0 8.0 0.00 0.06 0.06 74 1010.0
20260502211508 53 242 3.0 9.0 0.00 0.06 0.06 74 1009.9
20260502210011 53 212 3.0 7.0 0.00 0.06 0.06 75 1010.1
20260502204509 53 215 3.0 8.0 0.00 0.06 0.06 76 1010.1
20260502203007 52 175 2.0 8.0 0.00 0.06 0.06 78 1010.2
20260502201507 52 218 2.0 7.0 0.00 0.06 0.06 78 1010.3
20260502200011 52 238 2.0 6.0 0.00 0.06 0.06 77 1010.4
20260502191507 51 191 1.0 5.0 0.01 0.06 0.06 86 1010.6
20260502184508 49 238 2.0 7.0 0.03 0.06 0.06 87 1010.9
20260502183007 49 211 2.0 5.0 0.03 0.05 0.05 85 1010.9
20260502181507 50 163 1.0 4.0 0.03 0.05 0.05 86 1010.9
20260502151507 56 121 1.0 4.0 0.00 0.02 0.02 71 1011.7
20260502123006 51 254 0.0 4.0 0.00 0.01 0.01 78 1012.5
20260502121506 50 252 0.0 3.0 0.00 0.01 0.01 79 1012.1
20260502114506 48 246 0.0 2.0 0.00 0.01 0.01 83 1011.7
20260502113008 48 207 1.0 4.0 0.00 0.01 0.01 83 1011.7
20260502110008 47 200 0.0 0.0 0.00 0.01 0.01 83 1011.6
20260502104506 47 236 1.0 6.0 0.00 0.01 0.01 83 1011.6
20260502103008 46 189 0.0 5.0 0.00 0.01 0.01 83 1011.4
20260502101506 46 218 0.0 2.0 0.00 0.01 0.01 85 1011.0
20260502091506 47 218 0.0 0.0 0.01 0.01 0.01 85 1010.9
20260502070008 49 239 0.0 0.0 0.00 0.00 0.00 68 1011.2
20260502064505 49 220 0.0 4.0 0.00 0.00 0.00 68 1011.2
20260502063006 49 212 1.0 5.0 0.00 0.00 0.00 67 1011.2
20260502061506 50 262 0.0 2.0 0.00 0.00 0.00 67 1011.1
20260502060009 50 235 1.0 5.0 0.00 0.00 0.00 66 1011.1
20260502054507 50 217 1.0 4.0 0.00 0.00 0.00 65 1011.3
20260502053006 50 184 0.0 3.0 0.00 0.00 0.00 64 1011.3
20260502051507 50 229 0.0 2.0 0.00 0.00 0.00 63 1011.4
20260502050029 50 221 0.0 2.0 0.00 0.00 0.00 63 1011.4
20260502044507 49 238 0.0 0.0 0.00 0.00 0.00 63 1011.5
20260502043007 49 248 0.0 0.0 0.00 0.00 0.00 62 1011.6
20260502041506 50 248 0.0 0.0 0.00 0.00 0.00 61 1011.5